Montauk, NY

10:44 PM EDT on May 22, 2017 (GMT -0400)
Montauk

Weather History for KMTP - November, 2012

Change the Weather History Date:

Thursday, November 8, 2012

  Actual Average (KHTO) Record (KHTO)
Temperature  
Mean Temperature 40 °F -  
Max Temperature 43 °F 53 °F 66 °F (1996)
Min Temperature 37 °F 38 °F 21 °F (1993)
Degree Days  
Heating Degree Days 25    
Moisture  
Dew Point 34 °F    
Average Humidity 76    
Maximum Humidity 83    
Minimum Humidity 68    
Precipitation  
Precipitation 0.55 in - - ()
Sea Level Pressure  
Sea Level Pressure 29.66 in    
Wind  
Wind Speed 20 mph (NNW)    
Max Wind Speed 24 mph    
Max Gust Speed 41 mph    
Averages and records for this station are not official NWS values.
T = Trace of Precipitation, MM = Missing Value Source: NWS Daily Summary

Daily Weather History Graph

Daily Weather History Graph

Search for Another Location

Airport or City:

Trip Planner

Search our weather history database for the weather conditions in past years. The results will help you decide how hot, cold, wet, or windy it might be!

Date:

Astronomy

Nov. 08, 2012 Rise Set
Actual Time 6:27 AM EST 4:34 PM EST
Civil Twilight 5:58 AM EST 5:03 PM EST
Nautical Twilight 5:25 AM EST 5:36 PM EST
Astronomical Twilight 4:53 AM EST 6:09 PM EST
Moon 12:16 AM EST (11/8) 1:17 PM EST (11/8)
Length of Visible Light 11h 05m
Length of Day
10h 07m
Waning Crescent, 33% of the Moon is Illuminated
Nov 8
Waning Crescent
Nov 13
New
Nov 20
First Quarter
Nov 28
Full
Dec 6
Last Quarter

Hourly Weather History & Observations

Time (EST) Temp. Windchill Dew Point Humidity Pressure Visibility Wind Dir Wind Speed Gust Speed Precip Events Conditions
12:54 AM 37.9 °F 27.6 °F 32.0 °F 79% 29.60 in - North 20.7 mph 40.3 mph 0.01 in   Unknown
1:54 AM 37.9 °F 26.8 °F 32.0 °F 79% 29.59 in - North 24.2 mph 41.4 mph N/A   Unknown
2:54 AM 37.9 °F 27.3 °F 32.0 °F 79% 29.58 in - North 21.9 mph 36.8 mph N/A   Unknown
3:54 AM 39.0 °F 29.0 °F 32.0 °F 76% 29.58 in - North 20.7 mph 40.3 mph N/A   Unknown
4:54 AM 39.0 °F 29.0 °F 33.1 °F 79% 29.58 in - NNW 20.7 mph 35.7 mph N/A   Unknown
5:54 AM 39.0 °F 28.8 °F 33.1 °F 79% 29.58 in - North 21.9 mph 35.7 mph N/A   Unknown
6:54 AM 39.0 °F 29.0 °F 34.0 °F 82% 29.60 in - NNW 20.7 mph 34.5 mph 0.07 in   Unknown
7:54 AM 39.0 °F 29.3 °F 34.0 °F 82% 29.61 in - NNW 19.6 mph 31.1 mph 0.07 in   Unknown
9:54 AM 41.0 °F 32.2 °F 35.1 °F 79% 29.61 in - NNW 18.4 mph 29.9 mph N/A   Unknown
10:54 AM 39.9 °F 30.2 °F 35.1 °F 83% 29.61 in - NNW 20.7 mph 29.9 mph 0.04 in   Unknown
11:54 AM 41.0 °F 32.2 °F 36.0 °F 82% 29.61 in - NNW 18.4 mph 31.1 mph 0.16 in   Unknown
12:54 PM 41.0 °F 31.4 °F 36.0 °F 82% 29.61 in - NNW 21.9 mph 34.5 mph 0.17 in   Unknown
1:54 PM 42.1 °F 33.6 °F 36.0 °F 79% 29.63 in - NNW 18.4 mph 29.9 mph 0.03 in   Unknown
2:54 PM 43.0 °F 34.5 °F 35.1 °F 74% 29.65 in - NNW 19.6 mph 31.1 mph N/A   Unknown
3:54 PM 43.0 °F 35.1 °F 34.0 °F 71% 29.67 in - NNW 17.3 mph 29.9 mph N/A   Unknown
4:54 PM 42.1 °F 33.6 °F 34.0 °F 73% 29.70 in - NNW 18.4 mph 29.9 mph N/A   Unknown
5:54 PM 43.0 °F 34.8 °F 34.0 °F 71% 29.72 in - NNW 18.4 mph 31.1 mph N/A   Unknown
6:54 PM 42.1 °F 34.2 °F 34.0 °F 73% 29.75 in - NNW 16.1 mph 29.9 mph N/A   Unknown
7:54 PM 42.1 °F 33.6 °F 34.0 °F 73% 29.75 in - NNW 18.4 mph 25.3 mph N/A   Unknown
8:54 PM 42.1 °F 33.3 °F 33.1 °F 70% 29.77 in - NNW 19.6 mph 29.9 mph N/A   Unknown
9:54 PM 43.0 °F 34.8 °F 33.1 °F 68% 29.78 in - NNW 18.4 mph 27.6 mph N/A   Unknown
10:54 PM 43.0 °F 35.4 °F 33.1 °F 68% 29.79 in - NW 16.1 mph 26.5 mph N/A   Unknown
11:54 PM 42.1 °F 34.5 °F 33.1 °F 70% 29.80 in - NW 15.0 mph 24.2 mph N/A   Unknown